Theta_e
356 356 355 354 354 352 350 349 346 344 342 341 340 338 338 339 337 339 341 340 341 341 341 342 342 341 341 342 341 341 342 341 341 341 340 341 341 340 340 340 339 339 339 339 339 338 337 337 337 337 336 335 334 334 333 333 332 332 332 332 332 333 333 335 342 343 337 333 333 332 331 332 331 332 332 332 333 333 334 335 335 336 336 337 338
356 355 354 353 352 349 348 346 342 341 341 340 338 338 341 341 340 341 341 341 342 342 342 343 343 343 343 343 342 341 341 341 341 341 341 340 341 340 339 340 339 339 338 337 337 336 336 336 336 336 335 334 334 333 334 334 333 332 331 331 331 331 332 332 335 338 337 334 332 332 331 331 331 331 332 333 333 333 333 333 334 334 334 335 336
355 353 352 350 348 347 345 343 341 342 343 341 340 341 342 342 342 342 342 343 343 343 343 343 344 344 343 342 342 341 340 341 341 340 340 340 340 339 339 339 338 337 336 335 335 334 335 334 334 334 334 333 333 333 333 332 331 331 331 332 332 331 331 331 333 336 337 335 333 333 333 332 333 333 334 334 333 332 333 333 334 334 334 334 335
353 351 350 348 346 345 344 344 344 345 345 344 343 343 342 342 343 342 343 344 344 344 345 344 344 344 342 341 342 341 340 340 339 339 339 338 338 337 337 336 336 335 334 333 334 333 334 333 333 333 333 333 333 333 332 333 333 333 333 333 333 333 332 332 334 336 337 337 336 335 335 336 336 336 335 335 335 334 334 334 334 335 334 334 334
352 350 349 346 345 345 345 345 346 346 345 344 344 343 343 343 344 344 345 346 345 346 346 346 345 344 344 343 342 341 340 339 338 338 337 335 333 334 334 334 334 334 333 333 333 333 333 333 333 334 333 333 333 333 333 334 335 335 334 334 334 334 334 334 335 336 336 337 337 336 336 337 337 337 336 336 336 335 335 334 335 335 335 334 334
351 348 347 346 346 347 346 346 347 346 345 345 344 345 345 345 347 348 347 345 346 347 347 346 346 345 343 343 341 340 338 337 337 337 333 330 328 328 330 331 332 333 333 333 333 333 333 333 333 333 333 333 332 333 334 335 335 334 334 334 333 333 334 335 335 336 336 336 336 336 336 337 337 337 337 336 336 336 336 336 336 336 336 336 336
348 346 347 348 349 349 348 347 346 347 348 347 346 347 348 348 349 349 347 346 346 347 347 346 345 344 341 340 339 338 336 336 336 334 331 328 326 327 328 330 331 332 332 332 332 332 332 331 332 332 332 332 332 333 333 333 333 333 332 332 333 333 333 334 334 334 334 334 334 335 336 336 336 336 336 336 336 336 337 337 337 337 336 336 337
345 345 348 349 348 349 349 349 350 350 350 350 349 350 351 350 350 349 347 347 347 347 347 345 343 343 340 338 337 336 335 335 334 331 330 329 328 328 329 330 331 331 331 331 331 331 330 330 330 331 331 331 331 331 331 331 332 332 332 332 331 332 332 332 332 332 332 332 332 333 334 334 334 335 335 335 336 337 337 337 338 337 336 336 336
346 347 350 350 349 350 350 351 352 351 352 352 352 352 351 351 351 348 346 347 347 347 345 342 341 341 339 337 336 335 334 334 332 330 330 331 331 331 331 330 330 330 330 330 330 330 330 330 330 330 330 330 330 330 330 331 331 332 332 331 330 331 332 331 331 331 331 331 331 331 331 332 332 333 334 335 336 336 335 335 337 337 336 337 337
348 348 350 351 351 352 351 351 352 352 352 353 353 352 351 351 351 348 346 347 347 346 343 340 340 340 337 336 335 334 334 334 332 331 331 331 332 331 330 328 328 328 328 329 330 330 330 329 329 329 329 329 329 329 329 329 330 330 330 330 329 330 331 331 331 330 330 330 330 329 330 330 330 331 332 333 333 333 333 334 336 336 336 337 337
350 350 351 353 353 353 352 352 353 353 353 353 353 354 352 351 350 348 347 347 347 345 342 340 340 338 335 335 334 332 334 334 332 331 332 331 329 327 325 325 325 326 327 329 330 331 330 329 329 329 329 329 328 328 328 328 328 328 328 329 328 328 329 329 330 329 329 329 329 329 330 330 330 330 331 331 331 332 333 334 335 336 336 337 337
352 352 353 353 354 354 353 354 354 353 352 352 353 354 352 350 350 348 346 346 346 345 342 340 340 337 333 334 332 332 334 334 333 332 331 329 326 322 321 323 325 327 328 329 330 330 330 329 330 329 329 329 328 327 327 327 328 328 328 328 328 328 328 329 329 329 329 329 330 330 330 330 330 330 330 330 331 331 332 333 333 334 335 336 336
353 354 355 354 354 354 354 354 354 353 352 352 352 353 350 349 349 345 344 345 344 343 341 341 338 334 333 333 332 333 335 334 332 330 328 326 324 321 321 324 326 327 328 328 328 328 328 328 328 327 328 328 327 327 328 329 329 329 329 329 329 329 329 328 329 329 329 329 330 330 329 329 330 330 330 330 330 330 331 331 332 333 333 334 334
354 354 355 355 354 354 354 354 353 352 353 352 351 349 348 350 348 344 344 345 343 341 340 339 335 332 333 333 332 335 336 333 329 327 326 326 323 320 321 325 326 326 326 326 326 325 325 325 325 326 327 328 329 329 329 328 328 328 328 329 329 329 329 328 328 328 329 329 329 329 328 328 329 329 329 329 329 329 329 330 330 330 330 330 330
355 355 355 355 355 354 354 353 352 353 354 353 351 350 350 350 347 345 346 344 342 341 338 335 334 333 334 334 333 334 334 331 327 326 327 326 320 316 319 322 321 322 323 322 322 323 323 324 325 326 326 327 329 329 327 327 327 327 328 328 329 329 328 328 328 328 328 327 327 327 327 327 327 327 327 327 327 327 327 327 328 328 328 328 328
355 355 356 356 355 355 353 352 353 354 353 352 352 352 351 349 347 346 345 342 340 339 337 334 334 335 335 334 333 331 330 329 328 327 327 325 319 315 316 317 318 319 319 319 320 321 322 323 324 324 324 326 328 328 327 326 326 326 326 327 327 327 327 327 327 327 326 326 325 325 325 325 324 324 324 324 325 325 325 326 327 327 327 328 328
355 356 357 356 355 354 354 353 353 353 352 351 351 350 348 347 346 345 343 342 339 337 336 334 334 334 334 334 331 328 329 330 330 327 326 325 322 317 314 315 317 318 319 320 321 322 323 324 325 326 327 328 329 328 327 326 325 324 325 325 326 326 326 326 325 325 325 325 324 324 324 323 323 323 323 323 324 324 325 326 327 327 328 328 328
355 355 357 356 354 354 355 354 353 351 350 350 349 348 346 346 345 342 340 340 338 337 336 335 333 333 332 331 329 327 330 332 329 326 325 324 323 320 317 318 321 322 322 323 324 325 326 327 328 329 329 329 328 327 327 326 324 323 323 324 325 325 325 325 324 324 323 323 323 323 323 323 323 323 323 324 324 325 325 326 326 327 328 328 328
354 355 357 355 354 354 353 353 352 350 349 349 348 346 345 343 342 340 338 338 337 336 336 333 332 330 329 328 328 328 329 330 328 326 324 323 323 322 320 321 324 325 325 324 324 325 327 329 330 330 330 329 329 328 327 325 324 323 322 323 324 324 324 323 322 322 322 322 322 322 322 322 322 323 323 324 324 324 325 326 326 327 328 328 328
356 356 357 355 353 352 350 351 352 351 349 347 346 344 342 341 339 338 337 337 336 335 335 332 330 329 328 328 329 328 328 328 327 326 324 323 323 323 321 322 323 323 323 324 325 326 326 328 329 329 329 328 328 327 326 325 324 323 322 322 323 323 322 322 321 321 321 321 321 322 322 322 323 323 323 323 323 324 325 326 327 327 328 328 328
357 355 354 353 351 350 350 351 351 349 346 345 343 341 340 339 338 337 337 336 335 334 333 330 328 328 329 329 329 327 326 326 326 325 323 323 323 322 320 320 320 321 322 323 324 324 325 327 328 328 328 328 327 326 325 325 324 324 323 323 323 322 322 321 321 321 321 321 321 322 322 323 323 324 324 324 324 324 326 327 327 327 327 328 328
354 352 352 351 351 350 349 349 348 346 344 342 341 339 339 337 337 337 335 334 333 332 329 328 328 328 327 328 327 326 326 327 325 324 323 323 323 321 319 317 317 318 320 322 323 323 324 326 327 327 327 327 325 323 323 325 325 324 325 324 324 323 323 323 322 322 322 323 323 323 324 324 324 324 325 325 325 325 326 327 327 327 327 327 328
352 351 351 350 350 349 347 345 344 343 341 340 339 338 337 337 336 335 333 332 331 329 327 327 327 326 325 326 326 325 325 325 324 323 324 323 321 318 315 313 314 316 318 320 322 322 324 325 325 324 323 322 320 319 321 325 326 325 326 326 325 324 324 324 323 323 324 324 324 324 325 325 325 326 326 326 327 326 327 327 327 327 327 327 327
351 351 351 349 348 346 344 342 341 340 339 339 339 337 336 336 333 329 329 330 330 327 326 325 325 325 324 324 323 322 321 320 321 324 325 322 316 311 307 308 313 316 317 318 320 321 322 322 321 320 319 320 320 321 323 326 327 327 327 327 326 326 326 325 325 325 325 325 326 326 327 326 326 327 327 327 327 327 326 327 327 327 327 327 327
351 350 347 345 343 341 341 340 339 339 338 337 337 335 333 333 328 324 326 329 327 324 323 322 322 322 321 319 318 317 315 317 322 325 322 316 309 303 303 310 316 317 317 318 319 319 319 319 319 319 321 322 323 325 326 328 327 328 328 327 327 327 327 327 327 326 326 327 327 327 328 327 327 327 327 327 327 327 327 327 327 328 328 328 328
348 345 342 342 341 340 340 339 338 338 336 334 333 329 327 327 326 323 323 324 321 319 318 318 318 318 316 315 315 314 314 317 323 321 313 306 302 302 308 314 317 317 316 316 317 318 318 319 320 321 322 324 325 327 328 328 328 328 328 328 328 328 328 328 328 328 327 327 327 327 327 327 327 327 327 327 327 327 328 328 328 328 328 328 328
344 342 342 340 338 336 336 335 335 334 331 329 328 325 323 324 325 322 319 316 315 314 315 315 315 314 313 312 313 313 313 316 317 311 304 300 303 307 313 316 316 315 315 315 317 318 319 320 321 322 323 325 327 328 329 329 329 329 329 328 327 327 327 328 328 328 327 327 327 328 327 327 327 327 327 327 328 328 328 328 328 328 328 328 328
342 341 339 336 333 330 329 329 329 327 324 322 321 319 318 320 322 320 316 313 312 312 313 313 313 312 310 310 311 311 310 312 311 306 303 304 308 312 315 316 316 316 316 317 318 319 320 320 322 324 326 327 327 327 327 327 327 327 327 326 326 326 326 326 327 327 327 326 327 327 326 326 326 326 326 327 327 327 327 327 328 328 328 328 328
338 336 333 332 332 329 326 325 325 325 325 323 318 315 315 317 320 319 317 314 314 314 314 313 313 311 309 309 310 310 310 311 309 306 306 309 313 315 317 318 318 318 318 318 319 319 320 322 324 325 326 326 326 326 326 326 326 326 326 326 326 326 326 326 326 325 325 325 325 325 325 325 325 325 325 326 326 327 327 327 327 328 328 328 328
334 332 329 328 328 326 324 322 322 323 326 326 322 320 319 319 320 320 319 318 317 316 316 316 315 313 311 311 311 312 313 311 308 308 312 316 317 318 319 319 319 318 318 319 320 320 321 323 325 326 326 326 326 326 326 326 326 326 325 325 325 325 325 325 325 324 324 324 325 324 324 324 324 324 324 325 325 325 325 326 326 326 327 327 328
330 328 325 325 326 325 324 324 323 320 321 323 323 323 323 322 321 321 321 320 319 318 318 317 316 315 314 313 314 315 312 309 310 314 318 318 318 319 319 319 319 320 320 321 322 322 323 325 325 326 326 325 326 326 325 325 325 324 324 323 323 323 323 323 322 322 323 323 323 323 323 324 324 324 324 324 324 324 324 325 325 326 327 327 327
325 324 324 325 326 325 325 326 325 322 322 323 324 324 324 323 322 323 323 322 321 320 319 319 317 316 315 315 315 314 309 309 313 318 318 318 319 319 318 319 321 322 322 323 324 324 325 325 325 325 326 326 326 325 324 324 323 322 322 322 321 321 321 321 320 320 321 321 321 321 322 322 322 322 322 323 323 324 324 325 325 326 326 326 326
325 325 325 326 326 325 324 324 323 324 325 325 324 324 323 321 322 324 324 325 324 323 322 321 319 317 316 315 315 312 310 311 315 317 318 319 320 319 319 321 323 323 323 324 324 324 325 325 325 325 325 324 324 323 322 322 321 321 321 321 320 320 319 319 319 319 319 319 319 319 320 319 319 319 319 319 320 320 321 322 322 323 323 325 325
326 326 326 325 325 324 324 324 323 324 325 324 324 324 322 321 322 323 322 324 324 323 323 322 319 318 317 315 313 312 312 315 317 317 319 320 320 319 321 323 323 323 323 324 324 324 324 325 325 324 323 322 322 322 321 321 321 320 320 320 319 319 318 318 318 318 318 318 318 317 317 317 317 317 317 317 317 317 318 319 319 319 320 322 324
324 325 325 325 325 324 324 325 324 324 324 324 323 322 322 322 321 320 320 321 320 320 320 320 319 319 317 313 313 314 316 318 320 319 320 321 321 322 324 324 324 324 324 323 323 324 324 323 323 322 321 321 321 321 321 321 320 319 319 319 318 318 317 317 317 317 317 316 316 316 316 316 316 316 316 316 316 316 317 317 317 318 319 321 322
323 324 323 324 324 324 323 322 321 321 322 323 321 320 321 322 320 319 320 320 318 319 319 318 320 322 318 312 313 317 319 320 321 321 320 321 322 323 324 324 324 324 324 323 323 323 323 322 321 320 321 321 321 321 321 320 319 319 318 318 317 317 316 316 316 316 315 315 315 315 315 315 315 315 315 315 316 316 316 316 317 317 319 321 321
324 324 324 324 324 324 322 321 321 321 322 323 322 319 319 320 319 319 320 319 318 319 318 317 319 320 316 312 314 318 320 321 322 321 321 323 324 324 324 324 325 324 324 324 323 322 322 321 321 321 321 321 321 321 321 320 319 318 317 316 316 316 315 315 315 315 315 314 314 314 314 314 314 314 315 315 315 315 315 316 316 317 318 319 320
325 325 325 325 325 325 325 323 322 322 321 321 321 319 318 318 319 319 319 318 318 318 318 317 317 317 315 314 316 318 319 320 322 322 322 324 325 325 325 324 324 324 324 323 322 321 321 321 320 321 321 321 321 321 320 320 318 317 316 315 315 314 314 314 314 314 314 314 314 314 314 314 314 314 314 314 314 315 315 315 316 316 317 318 319
322 321 322 322 323 323 324 323 321 321 319 318 319 320 319 318 318 319 318 317 317 318 318 317 317 316 315 315 317 318 319 320 322 323 324 325 325 325 325 324 324 324 324 323 322 321 321 321 321 321 321 321 321 320 320 319 317 316 315 314 314 314 314 314 313 313 313 313 313 313 313 314 314 314 314 314 314 314 315 315 315 316 317 317 318
319 319 320 321 321 323 323 321 319 318 318 318 318 319 319 318 318 318 318 317 317 317 317 316 316 315 315 316 318 319 320 321 322 324 325 325 325 325 325 324 324 324 323 322 321 321 321 321 320 320 321 321 320 320 319 317 316 315 315 314 313 314 314 313 313 313 313 313 313 313 313 314 314 314 314 314 315 315 315 315 315 316 317 317 318
322 322 322 322 323 324 324 321 319 319 319 319 318 317 317 318 318 317 318 318 316 316 316 315 314 314 315 317 319 320 320 322 323 324 325 325 325 325 324 323 323 324 323 322 321 321 321 320 320 320 320 320 320 319 318 316 315 315 314 313 313 313 313 312 312 312 313 313 313 314 314 314 315 315 315 315 316 316 316 316 316 317 317 318 319
325 325 325 324 324 325 323 321 321 321 319 318 317 316 317 319 318 316 317 317 315 315 316 314 314 315 316 318 320 321 322 323 324 325 325 325 325 325 323 322 323 324 324 322 321 322 321 320 320 320 320 319 319 318 317 316 315 314 314 313 313 313 312 312 312 312 313 313 314 315 316 316 316 317 317 317 317 317 317 317 317 318 318 319 319
326 326 327 325 323 322 321 321 321 320 316 316 317 316 317 318 317 316 316 316 315 315 314 313 314 317 318 319 321 322 323 323 325 326 326 326 326 325 323 322 323 324 324 322 322 322 321 320 321 320 319 318 318 318 316 315 315 314 313 313 312 312 312 312 312 312 314 315 316 317 318 319 319 320 320 321 321 320 319 319 319 319 320 321 322
327 326 325 324 322 320 319 319 320 318 317 317 319 319 318 317 317 316 315 314 314 314 313 313 316 318 318 320 322 322 322 324 325 325 325 326 325 325 323 322 323 324 324 323 323 322 321 321 321 319 318 318 318 317 316 315 315 313 312 312 311 311 312 313 313 314 315 316 317 318 319 320 321 321 322 323 323 323 323 322 321 321 322 323 323
328 327 326 325 324 322 320 319 319 318 318 318 320 320 318 317 317 316 315 314 314 313 313 315 317 318 319 321 322 322 323 325 325 325 325 325 324 324 323 323 323 324 324 324 323 322 322 322 321 318 317 317 318 317 316 315 314 313 311 311 311 312 314 315 315 316 317 317 318 319 319 320 321 321 322 322 322 322 322 322 321 321 321 321 320
327 326 325 324 323 322 321 319 319 319 318 317 318 319 317 316 316 317 316 314 313 312 313 316 318 318 319 322 322 322 323 325 324 324 324 324 323 323 322 322 323 324 324 323 323 322 322 322 320 317 316 317 318 317 316 315 313 312 311 311 312 314 315 316 317 318 318 318 318 319 319 319 319 320 321 321 321 320 320 320 320 319 318 318 318
326 325 325 324 322 320 318 317 318 318 317 315 316 317 317 316 316 316 316 315 312 312 314 317 318 318 320 322 322 322 323 324 324 324 324 324 323 323 322 322 323 323 323 323 324 323 322 322 320 316 316 317 318 316 315 314 313 312 311 312 313 314 315 316 317 317 318 318 318 318 318 318 318 319 319 320 320 320 319 318 318 318 317 316 316
325 324 324 324 323 321 319 318 318 318 317 316 316 316 316 317 316 316 315 314 312 312 316 318 318 319 321 323 322 322 322 323 324 324 324 324 324 323 323 322 322 322 322 323 324 323 322 321 319 316 315 316 317 316 314 313 313 312 312 313 313 314 315 316 317 317 317 317 317 317 317 317 317 317 317 318 318 319 318 318 317 317 316 316 315
326 325 324 322 321 319 319 319 319 318 317 317 317 317 317 317 316 316 315 313 312 313 317 318 318 320 322 322 322 321 321 322 323 324 324 324 324 324 323 322 322 322 322 323 323 323 322 321 319 317 315 315 316 316 314 313 313 312 312 313 313 313 314 316 316 316 317 317 317 317 316 316 316 316 316 316 316 317 317 317 316 316 315 315 314
325 325 324 322 319 316 316 317 318 317 317 318 318 317 318 317 316 315 314 313 312 314 317 317 318 321 323 322 321 321 321 322 323 323 324 324 324 323 322 322 321 321 322 322 323 322 321 320 319 317 315 315 316 315 314 314 313 312 312 312 312 313 314 315 316 316 317 316 316 316 316 315 315 315 315 314 314 315 315 315 315 314 314 314 314
325 325 323 321 319 318 317 317 317 317 316 318 317 317 317 317 316 315 314 312 312 315 317 317 318 321 322 322 321 320 321 321 322 323 323 323 322 321 321 321 321 322 322 322 322 322 320 319 319 317 315 315 316 316 315 315 314 313 313 313 312 312 313 314 315 316 316 316 316 315 315 315 314 314 314 314 314 313 313 313 313 313 313 313 313
Wind_Speed
11 10 10 12 12 11 10 9 8 6 4 2 5 7 6 8 8 11 16 13 10 9 9 9 9 9 9 11 12 12 12 12 11 11 11 11 11 11 11 13 13 11 11 12 11 11 12 11 11 13 13 14 15 15 15 16 16 16 15 13 15 15 11 7 4 4 7 10 14 17 17 17 18 16 16 17 17 18 20 21 21 22 21 21 20
12 12 12 13 12 11 10 8 7 6 5 5 7 6 6 12 10 9 12 10 8 7 6 8 9 8 8 9 9 9 10 10 10 10 11 11 11 11 12 14 14 13 12 13 13 13 14 14 13 13 13 14 15 15 16 17 17 17 17 15 14 15 15 14 10 7 8 11 13 15 17 17 18 15 13 16 18 19 21 22 23 23 22 22 22
14 13 13 12 11 11 9 7 7 6 4 3 7 8 9 10 8 8 8 7 6 6 6 8 8 7 6 6 7 8 9 9 9 10 10 11 12 12 12 13 13 13 13 13 13 14 14 14 13 13 13 14 15 15 15 16 16 16 17 17 16 16 16 16 13 9 9 9 10 12 15 15 14 12 13 16 18 19 20 20 20 20 20 20 21
14 13 12 12 11 10 9 8 6 3 3 8 12 11 9 7 7 7 6 6 6 7 8 8 7 6 6 7 8 8 8 8 9 9 10 12 13 14 14 14 13 14 14 13 13 14 14 13 13 13 14 15 15 14 14 15 17 17 16 17 19 19 17 17 18 15 11 10 10 12 14 15 15 14 15 17 18 20 19 18 19 19 20 20 20
14 13 13 12 11 10 9 8 6 4 5 7 9 9 7 7 7 7 7 7 6 6 6 6 6 7 7 7 7 8 8 8 7 8 10 12 13 15 16 15 15 14 14 14 14 14 14 13 13 14 14 15 15 14 15 16 18 18 17 17 19 20 19 19 20 19 17 15 15 15 16 17 17 17 17 18 19 19 18 18 19 19 19 19 18
14 13 13 12 11 10 9 8 6 5 5 6 7 6 6 7 7 8 7 5 5 6 5 5 6 7 7 7 7 7 7 6 4 5 8 11 13 14 15 15 15 15 15 14 14 14 13 12 12 13 13 14 14 14 15 15 16 16 17 18 19 19 20 20 20 19 18 17 17 17 17 17 16 16 17 18 19 18 18 18 19 19 19 20 19
14 13 12 12 11 10 9 8 7 6 6 6 6 5 5 6 7 7 5 4 4 6 6 7 7 7 7 7 6 7 7 4 2 3 7 10 12 12 13 15 15 15 15 15 14 13 13 13 13 13 13 12 13 13 14 15 14 15 16 16 17 18 18 18 18 18 18 17 16 16 16 17 18 18 17 18 19 18 17 16 17 19 22 23 22
14 13 13 12 11 10 9 8 7 7 7 6 5 6 7 7 7 5 3 3 4 5 5 6 7 6 6 7 6 7 8 1 4 5 8 9 10 11 12 13 15 15 16 16 15 14 14 15 14 13 13 13 13 14 14 15 14 14 14 14 14 15 15 15 16 16 16 16 16 16 17 18 19 18 18 17 16 15 15 14 15 18 21 23 23
14 13 13 11 10 10 9 8 7 6 6 6 6 7 6 6 6 3 5 4 3 2 4 6 6 6 6 6 6 8 7 2 5 7 8 8 10 11 12 13 14 15 15 16 16 15 15 15 14 14 15 15 15 15 15 15 14 14 15 14 14 15 15 15 15 15 15 15 15 17 17 17 17 17 17 15 14 15 16 16 16 16 18 20 22
13 13 12 11 10 9 8 7 6 6 5 5 5 5 3 4 3 1 5 5 2 2 5 6 4 4 4 4 5 9 5 3 4 8 9 10 12 12 13 14 14 15 15 15 16 14 13 13 13 14 15 15 16 15 15 15 15 15 15 15 16 17 16 15 14 14 14 13 14 16 15 15 17 18 18 18 18 18 17 16 14 14 15 15 17
13 13 12 10 9 8 6 6 5 4 4 4 3 3 2 2 2 3 4 5 4 3 6 5 1 2 3 3 6 9 5 3 6 10 10 12 14 14 15 14 14 14 14 14 15 14 15 15 15 15 16 16 17 17 17 17 17 18 18 18 19 19 17 17 16 17 16 15 15 15 14 15 17 19 20 20 20 19 17 16 15 15 14 11 11
12 12 11 10 9 7 6 5 4 4 4 2 3 3 2 2 3 3 2 3 4 4 4 3 2 2 5 5 8 8 4 4 7 9 11 13 14 16 16 14 13 14 14 14 15 15 16 16 16 16 16 17 18 19 20 19 18 18 19 19 20 19 19 18 17 17 17 16 17 17 17 18 20 21 21 21 21 21 21 20 18 16 15 12 11
12 12 11 9 8 7 5 5 4 4 4 2 3 3 3 4 3 2 0 1 2 2 4 5 2 3 4 5 8 6 2 4 8 9 11 13 16 17 17 14 14 14 14 15 15 16 16 17 17 18 18 19 20 20 19 18 18 18 19 20 20 20 20 20 20 21 20 19 19 19 19 20 21 22 22 22 22 22 21 20 18 15 15 14 13
11 11 10 8 7 6 5 5 3 2 2 2 4 4 4 4 3 2 1 1 0 1 3 4 3 4 3 5 8 4 1 4 9 9 11 14 17 17 15 14 14 14 15 16 16 17 18 19 19 20 19 19 18 18 19 19 20 20 20 20 20 20 21 22 23 23 22 20 20 21 22 21 21 22 23 22 21 20 19 19 19 18 17 17 18
11 11 9 8 7 6 5 4 2 2 2 2 3 4 4 3 2 2 1 1 1 2 3 3 3 6 6 7 8 4 3 6 9 9 11 14 17 17 15 14 15 15 16 17 18 19 19 19 19 19 19 19 18 19 20 20 19 19 19 20 20 20 21 21 20 21 20 20 22 24 24 24 24 24 25 24 23 24 23 23 23 22 21 21 22
11 10 9 8 7 6 5 4 2 2 3 3 4 4 2 2 3 3 2 2 1 2 3 5 6 8 8 7 7 6 6 7 7 9 12 15 18 18 16 15 16 16 17 17 18 18 19 19 19 21 21 19 18 17 17 18 19 20 20 21 21 21 21 21 20 20 20 22 24 25 26 27 26 27 28 28 27 27 26 25 23 22 20 18 19
11 10 9 8 7 6 4 3 2 3 3 3 3 2 2 3 3 3 2 1 1 2 4 5 6 7 7 6 7 8 6 4 5 10 13 16 18 19 17 16 16 16 17 17 17 19 20 19 20 21 19 15 13 15 17 20 23 23 21 20 21 21 21 20 19 19 20 22 23 24 26 27 28 28 27 27 27 26 24 22 20 18 15 12 13
10 9 8 7 7 6 4 3 3 3 3 2 2 3 3 2 3 3 1 0 1 2 4 5 7 8 7 6 7 7 5 3 7 11 14 16 18 19 19 17 16 16 16 17 19 20 20 20 20 18 14 12 14 18 22 25 26 24 20 18 19 20 20 19 19 19 20 21 21 21 22 23 25 25 25 24 24 23 22 21 20 18 15 13 13
9 8 8 6 6 6 5 4 3 2 1 1 2 2 3 4 3 2 1 3 4 5 7 8 9 8 7 6 6 6 5 6 9 12 15 16 16 17 18 17 16 16 17 19 20 20 19 19 18 15 14 17 21 23 27 29 29 25 20 16 17 18 18 18 18 20 21 21 20 20 21 22 22 23 23 23 22 22 22 22 20 18 17 17 17
8 7 7 7 6 5 3 3 3 2 2 4 4 5 5 4 3 3 4 6 8 9 8 8 8 6 6 6 5 6 6 8 10 12 15 16 15 16 16 16 16 17 18 19 19 19 19 18 16 16 19 23 24 26 29 30 26 23 19 16 15 17 18 18 18 19 19 20 19 19 20 21 20 20 21 21 20 20 20 19 19 19 19 19 19
8 7 7 7 6 4 3 3 4 5 6 7 7 5 4 3 4 5 6 7 7 7 6 6 6 5 5 6 5 6 7 9 10 13 15 14 13 13 15 16 17 18 19 18 18 18 19 18 17 19 21 23 26 29 31 27 21 19 20 17 16 17 19 20 20 18 17 18 18 18 18 19 19 19 19 19 19 17 17 17 17 18 20 20 20
7 7 7 6 5 5 6 7 7 7 7 6 6 5 4 5 6 6 6 6 5 5 5 5 5 5 5 5 6 7 9 8 9 13 15 11 10 13 15 17 19 20 20 19 18 19 20 20 20 21 22 26 30 32 30 23 18 19 20 18 17 17 19 21 21 19 17 17 17 17 18 18 18 18 18 18 18 16 16 15 15 16 18 20 20
7 6 7 6 6 8 9 8 8 7 6 5 5 5 5 5 5 5 5 4 4 4 5 4 4 5 5 4 6 8 8 9 12 13 10 8 11 15 18 19 21 21 20 20 20 20 21 21 23 25 28 31 32 29 25 20 18 18 18 18 18 18 19 22 22 19 17 17 17 17 18 18 17 17 18 18 17 16 16 16 16 16 17 19 20
8 8 8 8 9 9 8 8 7 5 5 4 4 4 4 4 5 4 2 0 1 3 6 5 5 5 5 6 8 10 11 13 13 8 5 9 16 21 22 22 22 22 21 21 21 21 23 24 27 30 31 30 27 23 20 18 17 17 17 19 19 20 21 22 20 17 17 17 17 17 17 17 17 17 18 17 17 18 19 19 18 18 18 20 21
10 11 10 9 9 9 9 8 6 5 4 5 4 3 2 3 3 3 3 2 3 5 8 8 8 9 10 12 12 13 15 14 9 6 9 18 24 25 24 23 22 22 22 22 21 22 24 27 29 30 29 26 24 21 19 18 18 19 19 19 19 19 20 19 17 17 17 17 17 17 17 17 17 17 18 18 18 19 20 19 19 18 19 20 20
12 11 11 10 9 9 10 10 8 6 6 6 6 4 3 4 5 5 6 7 8 10 10 10 11 12 14 14 14 15 16 12 8 12 21 26 26 25 23 23 23 24 24 23 23 24 27 28 29 29 26 23 21 20 20 20 20 19 18 16 15 15 16 16 16 17 18 18 18 18 18 19 20 20 21 21 20 19 18 18 18 19 19 18 18
12 11 11 9 6 5 5 5 6 7 6 5 7 7 7 7 9 12 12 11 10 11 10 10 12 13 14 14 14 15 15 12 14 21 26 26 24 24 23 23 25 25 25 25 26 27 29 30 30 29 26 22 19 18 18 17 16 15 14 12 12 14 16 16 16 17 17 17 16 17 19 20 19 20 21 21 19 18 18 17 16 17 17 16 16
11 9 8 6 5 4 3 5 6 8 8 8 9 9 9 9 11 12 12 10 8 9 9 10 11 12 13 13 14 15 15 15 19 24 24 22 22 22 22 23 24 23 24 27 29 30 30 31 31 28 24 20 18 18 19 19 19 18 16 16 17 18 18 18 18 18 18 17 16 17 19 19 18 18 19 18 18 18 18 17 16 16 16 15 15
9 9 8 7 7 7 7 6 7 8 10 10 9 9 9 8 9 8 9 10 9 9 9 9 10 11 11 12 14 14 14 17 21 22 20 19 19 20 21 22 22 23 26 29 30 31 32 30 27 23 20 20 21 21 21 22 22 21 21 21 21 21 21 20 19 19 20 20 18 19 20 19 18 18 18 18 19 19 18 17 17 17 17 16 15
8 9 8 7 7 8 9 8 8 9 9 10 9 9 7 6 6 6 6 7 9 10 9 8 9 10 11 12 12 13 15 18 20 19 18 19 19 18 19 20 23 27 29 29 28 29 29 25 21 19 21 22 21 20 20 21 20 20 21 22 22 21 21 21 20 21 22 21 19 19 19 18 18 19 18 19 20 21 20 18 18 18 17 15 14
9 11 11 10 10 10 10 9 9 10 9 8 6 4 4 5 3 3 4 5 7 8 8 7 8 10 12 13 13 14 18 19 17 16 18 20 19 18 20 24 26 27 26 24 23 23 22 19 18 20 21 20 19 20 20 20 19 20 21 22 23 23 22 22 24 25 24 22 20 21 20 18 18 19 19 19 20 21 20 19 17 16 16 15 14
16 14 11 10 11 11 10 10 10 8 8 7 5 3 2 4 4 2 1 3 4 5 6 7 7 8 11 12 13 17 20 18 14 15 18 20 20 21 24 26 25 23 21 19 18 18 18 19 19 20 20 20 19 20 20 20 20 20 20 21 24 24 23 23 24 23 21 21 21 21 19 18 18 19 19 19 19 19 18 17 16 16 16 16 16
15 14 12 11 11 11 9 10 9 8 7 6 4 5 6 5 1 2 2 2 3 5 7 6 7 9 10 11 14 20 20 16 14 15 17 19 21 23 24 23 21 20 20 19 17 18 19 20 19 20 20 20 19 20 20 20 20 20 20 21 22 23 23 24 23 22 21 20 19 18 18 18 19 19 19 18 18 17 17 18 18 18 18 17 17
15 13 12 11 11 11 10 10 9 8 7 5 5 6 7 6 5 6 5 3 4 7 8 7 8 10 9 12 18 21 18 15 15 15 17 20 21 21 21 20 18 19 20 18 16 18 19 19 19 20 21 20 19 19 19 19 20 20 20 21 22 23 24 24 22 22 22 20 18 17 18 19 19 19 18 18 17 16 15 16 17 18 17 17 18
15 13 11 11 12 11 10 9 8 6 5 5 6 6 6 6 7 8 8 8 8 10 10 9 10 9 11 16 22 21 17 16 16 15 17 20 19 18 19 18 17 19 19 18 18 19 18 19 20 21 20 20 20 19 18 18 19 20 20 21 22 22 23 22 21 21 21 19 18 19 19 20 19 17 17 17 17 15 14 14 14 14 14 13 16
13 12 12 12 12 11 10 8 7 5 4 4 6 6 6 6 8 8 8 8 9 10 10 10 9 9 13 20 23 19 16 16 15 14 17 18 17 17 18 17 17 19 19 19 20 20 18 19 20 20 20 21 21 20 19 17 18 19 21 22 22 22 22 22 21 21 20 19 19 19 20 19 18 17 17 16 15 14 15 14 13 13 11 10 12
12 12 11 11 10 10 8 6 6 6 4 3 4 6 7 7 7 8 8 8 9 9 10 11 9 9 14 22 23 18 16 17 15 15 17 17 17 17 17 17 17 19 19 20 21 20 18 19 20 20 21 22 21 20 19 17 17 19 21 22 22 22 23 22 21 20 20 20 19 20 20 19 18 17 16 15 15 14 14 14 14 13 11 10 10
13 11 11 9 7 7 7 5 4 4 4 4 4 5 7 7 7 8 7 8 9 9 9 10 9 9 14 20 21 18 17 17 17 16 17 18 18 17 17 17 17 18 19 20 20 19 20 21 22 22 22 22 21 20 18 16 16 20 23 23 23 24 23 22 21 21 20 20 20 20 20 20 19 18 16 16 16 15 13 13 13 13 12 11 10
11 9 9 7 4 4 5 5 5 5 6 6 6 6 7 7 8 8 8 9 9 9 9 10 8 8 11 17 20 19 17 16 16 17 17 17 17 17 18 18 17 18 18 18 18 20 21 21 23 25 24 23 22 21 18 17 19 21 23 24 25 24 22 21 22 22 21 20 20 19 19 20 19 17 16 15 15 14 14 14 14 13 12 11 10
10 9 7 5 4 4 5 6 7 7 7 6 6 6 7 7 7 7 7 8 9 9 9 9 8 8 10 15 19 19 18 15 14 17 17 16 15 16 18 17 17 17 17 17 19 21 21 21 24 26 25 25 24 21 20 21 22 22 23 25 25 23 21 21 22 22 21 20 20 19 19 20 18 17 16 15 14 15 14 14 13 12 12 11 11
11 9 7 6 3 3 4 7 8 7 5 5 6 7 7 6 6 6 6 7 8 9 9 8 9 8 9 13 17 19 18 13 14 16 15 14 14 16 16 16 17 17 17 18 21 22 21 23 26 26 25 27 25 21 21 24 24 24 25 26 24 22 21 22 23 22 21 20 19 20 21 21 19 17 17 15 13 13 13 12 13 13 12 10 8
9 8 7 6 5 4 4 6 7 6 5 5 7 7 5 4 5 6 6 7 8 9 8 9 10 8 8 12 16 18 16 14 16 16 13 11 13 16 16 16 17 17 18 20 22 23 23 26 27 26 27 28 25 22 23 26 26 26 26 26 23 22 22 23 24 22 21 21 21 22 24 24 23 22 20 17 13 12 12 11 11 11 11 10 9
6 7 6 4 3 4 6 5 5 6 6 5 5 5 4 3 4 6 7 8 8 8 8 9 10 9 9 11 14 15 15 15 15 14 12 12 15 17 16 17 17 17 18 20 22 23 25 26 26 26 29 28 24 24 26 27 27 28 27 25 23 22 22 24 24 22 20 21 22 24 26 27 26 24 24 21 17 12 11 10 10 11 12 10 7
7 7 6 5 6 6 5 5 5 5 4 1 3 3 3 4 5 7 8 8 8 8 8 9 9 10 11 11 13 14 15 14 13 13 12 13 15 15 16 17 18 17 18 20 22 23 25 25 25 27 30 27 24 25 28 28 28 29 28 26 24 23 23 24 24 20 19 20 22 24 25 25 23 22 22 23 22 19 13 8 7 7 7 8 11
7 7 7 7 7 7 6 5 4 1 0 2 4 3 3 5 6 6 7 8 8 8 8 9 9 10 10 11 12 13 14 13 13 14 13 13 14 15 15 17 18 18 18 20 21 23 25 25 25 29 30 26 24 27 31 31 30 30 30 27 24 23 23 24 22 19 18 18 20 22 22 21 21 21 21 23 26 27 24 20 18 19 22 24 24
5 6 6 7 7 7 6 5 2 1 2 3 2 2 5 6 5 4 5 7 7 8 8 9 9 10 10 11 12 13 13 13 13 13 13 13 14 15 16 18 19 19 19 19 21 24 25 24 26 30 29 25 24 29 33 33 31 31 31 28 24 22 22 21 19 19 19 18 19 20 20 20 21 21 20 21 23 25 26 26 26 26 26 26 26
5 5 4 6 7 7 5 4 3 2 4 5 4 4 4 5 4 4 5 6 7 8 9 9 9 9 10 10 11 12 13 12 11 11 13 14 14 15 17 19 19 19 19 19 21 24 24 23 26 30 29 24 24 29 34 34 32 31 31 29 24 23 22 20 18 17 18 18 18 19 20 20 22 23 23 22 22 23 24 25 25 25 25 26 27
7 5 3 4 6 7 7 5 3 4 4 4 4 4 4 4 5 5 6 6 8 8 8 8 9 9 9 10 11 11 12 11 11 11 12 13 14 15 17 19 19 19 20 19 20 23 23 22 25 29 29 25 23 27 33 36 35 33 32 30 25 22 21 19 17 17 19 20 20 21 21 22 22 23 24 24 23 23 24 25 25 25 25 25 25
7 7 5 4 4 5 5 4 3 3 4 4 4 4 3 4 5 6 6 7 8 8 8 8 8 9 9 10 10 11 12 12 12 12 12 13 14 15 16 18 19 19 20 20 20 22 23 22 24 27 28 25 22 24 29 35 37 35 33 31 28 24 21 19 18 19 20 21 21 21 22 23 24 25 25 26 25 25 25 25 25 25 25 25 24
6 6 6 5 5 5 5 4 5 5 3 3 4 4 3 4 7 7 6 7 7 7 7 8 8 8 9 10 10 12 13 13 13 13 13 14 14 15 16 17 19 19 20 20 20 22 22 22 23 25 27 26 24 22 24 30 36 38 36 32 30 28 24 20 18 18 20 21 21 21 22 23 25 27 27 28 28 28 27 26 25 25 25 25 24
5 5 6 6 5 6 5 5 5 5 3 3 5 5 4 6 7 7 6 7 7 7 7 8 8 8 9 10 11 12 13 12 12 13 14 14 15 16 16 18 18 19 19 20 20 21 22 22 22 24 26 26 25 24 23 24 29 35 39 40 37 34 30 25 21 19 20 22 23 23 23 24 25 25 25 26 27 29 30 29 28 28 27 26 26
Wind_Direction
137 134 131 131 134 137 136 137 137 147 177 162 124 133 107 79 72 68 70 68 54 47 36 34 40 28 13 10 11 13 11 9 6 0 0 0 353 339 334 347 354 346 332 325 322 319 325 338 339 326 318 314 311 309 309 307 302 302 311 322 323 315 297 270 260 268 274 285 293 294 296 300 303 302 303 308 316 318 315 316 319 318 316 313 304
132 130 133 140 142 136 130 131 134 147 164 139 135 144 85 69 69 64 66 64 56 51 40 38 38 28 21 16 10 8 5 3 1 1 359 356 353 347 347 352 347 337 333 332 333 337 344 351 345 330 319 315 318 322 323 320 316 314 316 316 310 307 307 301 286 263 270 282 286 290 292 292 291 292 299 309 318 320 317 314 311 308 306 304 302
132 135 139 138 129 122 120 123 137 158 179 127 110 106 82 70 70 69 66 60 56 51 38 40 39 25 15 15 12 5 2 2 0 4 5 2 1 357 353 351 344 338 338 337 338 342 346 345 336 330 326 324 325 324 320 316 313 313 314 319 322 314 309 312 306 285 274 282 289 295 297 295 294 301 306 306 306 306 307 305 301 300 299 298 297
138 139 136 126 118 121 127 132 144 152 85 61 67 80 88 79 68 66 61 44 42 49 43 41 36 17 10 14 13 4 1 3 2 7 15 14 9 3 357 352 346 339 337 339 341 341 343 339 332 333 332 328 325 319 317 323 327 327 325 328 331 325 323 330 332 330 326 322 317 311 309 310 311 311 309 303 298 295 295 295 293 292 291 290 291
139 134 128 125 126 130 131 135 135 110 92 83 77 77 80 77 65 56 57 43 36 49 48 34 24 20 18 11 5 3 2 359 8 25 27 21 13 3 355 349 344 339 337 339 339 338 339 334 331 335 334 328 324 318 323 335 339 335 330 329 331 331 332 333 332 335 335 331 326 319 312 308 304 301 300 298 293 290 289 289 289 290 292 291 289
134 131 129 129 131 129 129 133 129 108 99 99 94 83 75 80 71 55 53 47 44 48 33 14 19 19 12 5 1 1 355 352 16 39 24 15 11 2 352 346 341 337 333 334 332 329 331 332 332 333 329 322 321 322 328 334 335 331 329 329 330 332 334 333 332 334 335 333 328 320 312 308 306 305 302 295 292 292 293 294 294 295 299 301 297
135 136 133 131 131 131 133 133 123 109 101 97 96 86 78 84 77 58 35 18 44 48 26 9 10 8 1 3 7 353 338 342 51 33 14 11 10 6 354 342 336 334 330 328 325 323 326 329 325 320 316 314 315 320 323 321 322 323 321 322 326 329 330 329 329 331 331 329 324 317 314 313 312 310 306 301 298 296 296 298 300 299 300 301 300
140 138 133 134 137 135 134 129 121 112 105 105 98 80 72 73 70 52 355 357 39 49 32 6 354 359 2 9 16 348 330 8 100 40 20 13 5 3 354 338 331 329 325 321 319 320 322 322 317 311 308 307 308 310 310 308 309 309 307 309 315 318 318 319 321 323 323 321 317 313 311 309 307 305 302 302 299 296 298 299 296 295 296 297 296
142 138 135 137 138 133 131 129 128 123 115 109 93 76 72 73 67 9 310 341 15 2 358 352 351 6 10 17 13 338 324 96 85 29 19 13 2 357 346 335 326 322 321 319 317 316 317 318 317 314 310 308 311 311 309 306 302 296 298 302 303 303 302 304 308 311 314 315 313 311 308 303 301 300 298 296 293 292 295 291 285 287 292 293 293
141 139 139 139 136 134 136 134 133 133 121 103 92 91 95 94 96 278 297 318 316 310 341 354 12 14 2 19 359 335 333 104 47 13 14 8 1 353 340 332 325 321 319 315 311 311 315 317 316 312 310 310 311 310 307 305 302 297 295 295 295 294 293 293 296 297 299 301 300 299 299 297 297 299 299 299 297 295 293 288 286 291 294 294 293
143 142 141 141 139 138 141 139 139 138 122 107 122 148 157 149 180 245 285 295 292 325 340 335 337 333 341 13 350 340 1 60 8 5 8 0 357 352 342 332 325 321 317 311 311 317 319 318 315 312 312 309 306 304 303 300 299 297 294 293 292 292 291 289 287 282 281 283 284 286 288 291 294 296 296 298 299 301 304 305 304 301 296 292 292
147 144 142 144 146 148 149 150 155 146 131 146 194 201 210 230 259 281 299 301 305 330 324 279 236 337 353 1 348 340 354 15 2 2 0 356 356 351 343 333 323 318 316 313 315 316 314 314 315 314 313 309 306 307 307 305 303 300 298 298 297 296 295 295 292 286 284 283 281 280 281 283 285 286 288 293 298 303 306 305 301 297 294 290 287
150 147 148 150 152 154 156 158 164 149 145 202 237 244 251 247 262 287 350 319 305 298 279 255 256 350 350 342 339 333 340 10 4 0 358 357 355 350 343 332 322 316 316 316 316 317 319 321 321 316 311 308 308 309 311 313 314 311 307 303 300 297 295 293 291 290 289 287 284 281 281 281 281 283 287 290 294 298 301 301 300 301 301 298 294
155 152 151 153 155 159 161 159 161 154 159 215 248 266 270 254 259 280 273 293 128 169 253 264 297 348 350 342 342 347 80 19 359 356 359 357 352 349 343 333 325 321 321 322 323 324 324 322 317 312 309 311 312 313 317 320 319 316 311 306 303 301 298 296 294 291 287 283 281 283 285 286 286 288 291 292 291 293 296 297 299 302 301 298 298
159 155 151 156 160 162 164 157 161 197 195 220 250 258 258 258 300 340 0 26 112 183 256 299 354 13 16 4 354 4 20 356 350 354 357 353 350 350 344 333 329 326 323 324 325 323 321 319 316 315 316 318 317 314 318 322 321 319 315 310 307 304 300 298 296 292 286 281 282 284 285 286 287 289 291 292 291 290 289 287 287 290 292 295 297
160 155 155 159 163 166 169 165 180 219 228 259 264 256 261 307 336 12 66 85 86 272 305 340 2 11 12 1 353 355 342 331 342 354 352 348 348 350 344 334 330 327 324 325 325 322 321 320 318 317 318 315 309 311 319 325 327 325 320 314 310 305 301 298 295 290 289 289 289 288 286 286 287 288 288 289 289 290 290 288 284 282 283 288 290
162 159 156 159 169 172 167 165 191 220 232 270 296 327 357 2 14 40 67 84 14 341 341 352 6 9 7 2 356 348 326 305 337 352 348 344 345 349 350 341 333 331 329 328 326 323 320 317 314 312 310 306 307 319 328 331 332 330 323 314 309 305 302 302 301 297 295 294 292 290 288 288 289 290 291 291 290 290 287 282 277 276 275 276 280
166 163 161 166 170 167 165 164 184 214 223 258 330 0 20 53 74 73 61 283 284 332 339 355 19 17 5 0 352 337 314 308 339 345 341 339 341 349 353 348 339 336 335 330 327 324 321 319 317 311 306 312 325 331 334 336 336 332 322 311 305 303 303 307 309 306 302 299 295 293 293 294 293 295 296 294 291 289 282 271 267 268 267 265 270
163 160 161 164 160 164 172 155 145 166 160 41 14 58 90 93 87 78 8 333 359 21 12 7 15 10 355 350 343 333 329 327 332 335 335 336 341 345 350 350 344 338 335 330 328 327 326 326 325 322 324 330 331 330 332 333 333 330 323 310 302 303 307 312 313 311 309 306 302 300 300 299 297 295 294 293 292 290 281 270 264 261 259 260 266
147 150 154 153 152 158 154 122 129 146 109 90 95 106 105 96 82 50 19 8 11 17 11 2 358 350 344 341 332 332 334 325 324 329 331 334 337 339 346 351 344 336 333 329 326 325 327 327 326 322 323 325 323 322 323 325 324 323 321 310 300 302 306 308 310 311 310 307 305 304 301 299 297 295 294 294 294 291 284 276 266 258 256 258 263
141 145 144 144 141 132 111 106 112 110 107 108 109 105 89 71 59 36 24 19 11 6 359 349 342 335 334 333 330 335 333 324 326 331 330 328 331 339 350 353 345 338 333 327 322 322 323 322 319 317 317 317 315 315 318 320 317 312 309 302 298 303 305 303 305 309 306 302 301 300 298 298 299 299 297 296 293 289 285 282 273 263 257 256 258
134 131 125 124 121 115 115 116 111 112 118 119 113 103 75 51 44 36 26 17 7 2 352 338 333 332 331 332 333 333 330 327 330 330 328 328 339 350 354 349 344 341 335 326 322 320 319 318 317 315 313 311 310 312 315 317 311 306 306 304 305 310 309 303 302 303 299 295 295 294 293 296 298 299 298 297 295 292 289 287 281 272 264 260 259
117 110 112 118 120 120 118 114 112 113 111 102 95 88 72 52 45 38 22 11 14 0 334 315 313 319 321 330 339 339 338 338 335 332 334 351 360 354 347 342 342 342 336 327 322 320 319 319 315 312 311 309 310 312 312 309 305 306 308 307 307 311 310 304 300 296 290 288 290 288 288 289 290 293 295 296 297 299 299 295 289 282 277 273 271
123 122 123 126 125 123 120 114 112 111 105 99 91 78 68 68 60 30 339 339 62 341 318 310 312 324 348 8 4 1 356 347 347 356 12 0 349 344 340 340 342 343 339 331 325 322 320 316 313 313 314 314 315 315 310 302 298 300 303 303 306 309 307 302 296 287 281 283 284 284 285 289 290 291 292 295 299 302 303 300 295 291 287 284 281
138 128 125 129 129 132 135 127 120 120 117 113 107 96 116 120 76 349 288 164 71 356 346 352 353 3 20 21 10 2 355 350 0 23 355 340 339 339 340 343 344 344 340 334 327 322 318 315 317 319 320 320 319 315 307 302 299 299 300 302 305 306 302 295 289 285 281 280 283 287 291 297 300 300 301 305 306 304 302 299 295 293 291 289 286
136 131 139 147 151 158 159 148 144 149 147 143 137 115 95 108 82 27 26 51 35 12 6 6 5 10 14 10 2 355 352 354 0 351 340 338 340 342 343 345 345 344 340 333 327 324 322 321 323 323 322 321 318 309 302 300 299 298 297 300 303 304 301 296 295 295 291 288 292 299 301 301 302 303 305 309 310 307 304 299 294 293 295 293 290
135 148 157 153 143 154 155 130 127 131 120 111 111 89 58 58 63 50 42 35 19 10 8 8 11 10 3 359 356 353 353 357 351 344 341 341 343 345 346 346 344 341 337 333 329 326 324 326 328 327 323 319 316 314 316 317 314 307 305 310 315 313 310 308 307 307 305 302 305 313 315 311 308 307 307 308 308 307 307 305 299 296 296 293 288
146 149 145 125 109 116 100 70 78 95 89 67 65 70 62 58 62 56 43 33 23 17 12 12 15 8 356 358 1 357 356 354 347 344 345 346 345 346 346 344 341 336 334 334 329 324 325 329 331 331 331 332 337 345 349 348 343 338 337 339 337 331 327 324 321 322 323 320 318 322 325 323 319 316 315 312 307 305 307 306 302 299 298 293 285
142 132 131 134 138 133 115 81 59 85 110 108 90 83 77 71 77 73 50 43 48 42 29 24 22 13 5 6 6 360 354 349 346 348 351 351 349 346 343 341 337 334 334 333 328 326 328 329 329 334 348 356 357 357 355 350 346 345 344 344 342 339 336 333 331 334 334 329 324 325 327 327 323 321 320 317 313 312 312 308 304 303 302 296 286
152 131 111 101 106 108 105 91 60 62 93 113 111 108 104 89 89 88 61 48 49 44 37 32 26 22 19 13 6 358 351 348 351 357 0 358 354 350 344 339 336 334 333 332 329 327 326 326 333 348 359 358 352 348 347 344 343 342 341 339 338 338 337 335 336 337 334 329 327 326 326 324 320 319 318 316 315 315 315 313 309 305 301 295 290
112 106 87 69 73 85 93 95 82 67 70 80 84 105 152 161 138 87 55 45 42 35 26 22 21 20 16 10 4 359 355 355 1 6 2 356 353 350 345 342 342 343 342 340 337 333 330 335 347 352 351 348 346 346 345 345 344 344 342 341 341 342 342 341 340 338 335 333 333 331 327 324 321 320 319 316 314 313 312 312 309 304 301 300 301
87 93 92 79 77 83 84 84 85 83 84 83 60 29 92 150 177 206 349 14 21 16 4 4 13 11 7 8 6 360 358 0 4 1 354 349 347 346 344 344 349 356 358 353 346 343 344 347 348 348 348 349 351 352 352 351 349 346 343 341 342 343 343 341 340 340 339 338 338 335 333 332 331 329 327 325 323 320 319 317 313 308 304 303 303
93 96 99 92 86 90 93 90 86 81 79 77 48 29 48 56 23 319 312 307 336 347 342 348 3 4 7 15 10 0 357 358 356 350 346 345 345 344 344 349 358 4 3 359 354 351 349 348 349 356 358 356 355 356 355 351 346 343 340 338 339 339 338 337 338 339 338 337 337 334 332 331 331 329 328 328 328 326 325 325 325 325 323 319 311
102 102 105 106 101 96 94 92 87 81 75 59 34 37 43 30 14 16 14 4 356 351 349 356 3 7 19 22 9 1 356 351 346 342 342 346 348 349 352 358 4 2 358 359 359 354 349 353 2 6 1 355 352 351 346 343 343 341 337 334 334 334 333 333 334 334 334 333 331 328 326 325 324 323 321 321 320 318 319 322 325 328 330 330 327
105 102 101 102 98 91 88 87 82 84 87 60 35 32 29 22 23 19 15 19 17 6 5 8 7 20 38 21 5 360 355 345 340 340 343 349 357 2 2 1 359 357 356 358 0 360 2 7 8 0 350 344 342 338 335 337 340 340 338 334 332 332 333 333 332 331 330 328 324 321 320 320 318 315 314 313 314 314 315 316 318 318 317 322 330
113 108 103 100 97 94 93 90 86 89 89 61 42 35 27 28 27 15 11 21 18 6 5 8 13 39 39 16 3 0 356 348 346 349 355 5 15 13 4 357 354 354 355 359 4 10 13 7 356 344 337 336 334 333 334 335 336 341 342 338 334 333 333 333 331 330 328 325 321 319 319 318 316 313 310 309 309 311 312 313 312 311 309 315 324
116 113 110 108 107 111 113 103 93 90 82 69 59 42 31 30 26 14 13 19 14 4 4 9 20 43 30 12 3 360 355 352 356 4 11 19 22 12 0 353 352 354 358 3 9 12 5 352 342 336 334 334 333 334 337 336 339 345 345 342 339 337 334 332 331 329 326 323 321 320 319 317 316 314 310 307 307 309 311 312 311 310 311 316 321
111 113 115 112 113 131 142 125 90 73 53 49 59 47 35 31 24 17 17 15 11 7 5 7 23 45 31 13 2 354 348 349 357 11 20 20 14 5 355 353 358 3 4 5 8 4 353 345 343 341 340 339 340 342 343 346 350 351 349 345 342 338 336 336 335 332 327 324 322 322 319 317 317 315 310 307 307 307 306 308 309 309 310 311 310
103 109 126 126 89 92 119 107 80 68 53 44 42 42 42 36 22 18 21 16 10 7 3 8 30 52 34 13 3 355 346 346 1 19 24 15 6 359 351 353 6 11 5 3 5 359 349 348 349 347 346 348 350 353 356 356 354 353 352 348 342 337 338 339 335 332 329 325 322 322 320 317 317 316 312 309 308 306 304 305 304 302 300 302 304
108 103 121 128 77 65 104 103 77 61 51 44 37 36 41 39 26 18 18 15 11 4 0 12 39 49 27 14 6 353 340 343 9 24 19 6 359 353 349 357 12 11 0 2 4 356 350 353 352 349 352 356 358 2 5 1 355 352 351 348 343 339 339 338 335 333 332 329 327 329 328 324 320 316 310 307 306 304 305 307 307 306 303 298 296
128 114 108 114 124 150 137 108 86 69 56 53 50 40 33 32 26 18 15 19 14 1 360 20 37 31 22 22 10 351 340 354 21 23 12 358 351 348 350 4 13 5 357 2 2 354 353 357 354 352 359 5 6 8 8 1 355 350 347 346 345 343 340 340 339 338 336 334 334 336 335 333 328 318 309 306 306 307 307 305 301 303 306 302 296
145 144 145 153 172 170 118 91 91 88 74 65 63 49 27 16 24 17 17 29 20 359 0 27 31 19 24 27 9 353 358 22 28 18 7 355 347 349 359 9 8 359 357 3 2 359 359 359 356 358 7 10 9 10 6 358 353 350 346 345 346 344 341 342 343 342 342 342 341 342 342 340 335 328 322 317 311 304 302 303 302 304 304 301 292
125 131 136 130 113 92 77 78 99 95 71 63 74 62 25 11 32 27 24 33 24 1 4 26 28 22 27 22 4 2 21 34 24 10 4 354 347 353 3 5 1 359 0 3 4 4 2 359 360 6 11 11 9 6 1 356 353 352 349 347 346 345 344 345 347 348 349 349 348 350 350 347 344 342 342 341 337 326 310 300 299 301 301 298 292
132 129 124 108 102 97 76 65 84 92 79 114 160 128 52 40 49 40 30 29 22 7 9 23 27 27 26 15 5 15 33 34 17 8 7 359 352 355 358 356 357 0 1 2 7 8 4 2 6 10 11 11 7 3 360 357 355 355 354 352 350 348 349 351 353 355 358 358 357 356 355 354 357 2 7 13 19 22 15 353 331 337 8 48 70
155 142 134 123 121 122 108 85 79 90 249 220 199 173 85 57 52 45 39 31 18 8 14 25 30 31 26 13 9 22 36 35 20 12 9 2 357 356 354 353 356 359 358 1 8 9 6 8 13 14 13 12 9 4 1 359 358 358 359 358 357 358 0 3 5 8 10 8 3 360 0 7 16 22 27 34 41 45 46 49 53 58 65 71 73
157 121 121 116 105 102 105 102 99 40 40 52 69 83 69 59 50 50 53 41 21 13 20 28 33 33 27 15 13 26 39 37 23 13 10 5 1 358 357 358 360 0 1 4 8 8 9 14 18 16 14 14 11 7 3 2 2 3 3 5 8 13 14 14 17 21 23 22 17 16 20 27 32 34 37 43 50 53 55 57 61 64 67 71 74
121 103 112 121 115 114 114 109 111 112 90 70 52 49 61 62 53 53 59 50 34 26 28 30 33 35 32 20 15 25 36 35 23 14 12 9 4 1 2 3 4 4 6 9 10 9 11 18 20 17 16 17 16 12 10 9 8 8 10 13 17 19 19 21 25 30 33 36 38 40 40 40 40 43 47 51 55 59 61 61 63 66 69 72 75
128 118 108 115 125 133 138 142 150 143 123 103 82 70 68 66 59 54 51 47 39 34 33 34 32 35 37 27 15 20 31 29 19 14 14 11 6 2 2 4 7 8 9 10 10 9 14 20 20 18 18 21 19 17 18 18 16 14 17 22 23 20 22 29 36 42 46 49 51 52 52 49 48 50 53 55 59 64 67 67 68 70 71 73 75
131 125 117 113 110 107 107 116 122 112 103 102 99 89 76 73 71 60 49 47 45 38 37 38 35 37 41 32 17 20 29 25 16 16 19 15 8 4 3 5 10 12 12 12 11 11 16 22 20 16 19 23 22 20 24 27 26 23 25 28 29 28 31 38 46 51 53 54 53 54 56 57 57 58 59 60 64 68 70 72 72 72 73 74 75
103 105 104 104 106 101 90 79 80 80 74 78 88 86 81 82 80 67 50 49 51 44 40 41 38 40 44 35 21 23 29 22 14 18 22 15 9 8 7 8 12 14 14 14 13 14 19 23 20 16 18 23 23 22 26 32 35 35 35 35 36 37 41 46 52 55 57 57 57 57 59 61 63 63 63 64 67 69 71 72 73 73 73 73 75
121 123 109 102 115 127 123 110 96 86 69 66 77 78 71 73 77 72 61 55 51 46 48 50 45 42 43 38 30 29 30 23 19 24 24 17 13 13 11 11 14 15 13 14 16 18 21 23 22 18 17 20 22 21 23 31 39 44 45 45 45 46 47 51 56 61 64 66 67 67 66 66 65 65 64 65 67 69 70 72 73 74 74 73 75